Location: Årjäng
(59.3944°N, 12.1312°E)
Time: 06:35:53
(UTC+02:00)

ISS - Visible Passes

Search period start: 21 October 2020 00:00
Search period end: 30 October 2020 23:00
Orbit: 418 x 420 km, 51.6° (Epoch: 20 October)

Date Brightness Start Highest point End Pass type
(mag) Time Alt. Az. Time Alt. Az. Time Alt. Az.
25 Oct -0.8 05:56:33 10° S 05:57:46 12° SSE 05:59:01 10° SE visible
27 Oct -1.2 05:56:20 10° SSW 05:58:35 17° SSE 06:00:50 10° ESE visible
28 Oct -1.1 05:09:11 10° S 05:11:03 14° SSE 05:12:56 10° ESE visible
29 Oct -1.0 04:23:28 11° SSE 04:23:33 11° SSE 04:24:44 10° SE visible
29 Oct -1.6 05:56:52 10° SW 05:59:28 21° S 06:02:05 10° ESE visible
30 Oct -1.7 05:10:42 16° SSW 05:11:54 19° SSE 05:14:22 10° ESE visible
